Location: Blanot
(47.1713°N, 4.2340°E)
Time: 08:41:50
(UTC+00:00)

Cosmos 1818 - Pass Details

Date: 14 July 2020
Orbit: 777 x 796 km, 65.0° (Epoch: 14 August)

Event Time Altitude Azimuth Distance (km) Brightness Sun altitude
Rises 02:58:19 0° 321° (NW) 3,308 6.9 -9.1°
Reaches altitude 10° 03:00:46 10° 319° (NW) 2,375 6.1 -8.8°
Maximum altitude 03:06:12 69° 237° (WSW) 854 3.6 -8.2°
Drops below altitude 10° 03:11:35 10° 155° (SSE) 2,357 5.8 -7.5°
Sets 03:14:00 0° 153° (SSE) 3,281 6.6 -7.2°
